Location: Cheyres
(46.8153°N, 6.7877°E)
Time: 23:14:03
(UTC+00:00)

Cosmos 1328 Rocket - Pass Details

Date: 27 September 2021
Orbit: 601 x 627 km, 82.5° (Epoch: 15 October)

Event Time Altitude Azimuth Distance (km) Brightness Sun altitude
Exits shadow 03:40:07 27° 304° (NW) 1,188 4.7 -18.7°
Drops below altitude 10° 03:43:11 10° 348° (NNW) 1,958 6.2 -18.2°
Sets 03:45:40 0° 360° (N) 2,865 7.2 -17.8°
